H1 CPF 2 NER 2026 2 28 9 059 01 glonass138 H2 1805301 9138 43508 2026 2 28 0 0 0 2026 3 3 23 45 0 900 1 1 0 0 0 1 H9 10 0 61099 0.00000 0 -6717897.673 23933788.572 -5660183.002 10 0 61099 900.00000 0 -6412840.373 23075307.812 -8735754.646 10 0 61099 1800.00000 0 -6148748.936 21829064.971 -11641327.503 10 0 61099 2700.00000 0 -5978765.261 20222808.843 -14320332.031 10 0 61099 3600.00000 0 -5950166.115 18296379.217 -16720607.589 10 0 61099 4500.00000 0 -6102154.991 16100182.791 -18795425.341 10 0 61099 5400.00000 0 -6464005.573 13693239.452 -20504403.681 10 0 61099 6300.00000 0 -7053636.386 11140880.782 -21814297.895 10 0 61099 7200.00000 0 -7876677.790 8512197.308 -22699648.528 10 0 61099 8100.00000 0 -8926071.428 5877341.377 -23143275.907 10 0 61099 9000.00000 0 -10182219.596 3304798.368 -23136611.468 10 0 61099 9900.00000 0 -11613678.597 858740.089 -22679859.809 10 0 61099 10800.00000 0 -13178367.181 -1403429.644 -21781988.819 10 0 61099 11700.00000 0 -14825239.371 -3433235.568 -20460548.505 10 0 61099 12600.00000 0 -16496351.440 -5192908.525 -18741322.521 10 0 61099 13500.00000 0 -18129236.207 -6656707.198 -16657819.568 10 0 61099 14400.00000 0 -19659484.944 -7811730.439 -14250614.888 10 0 61099 15300.00000 0 -21023428.405 -8658188.062 -11566555.032 10 0 61099 16200.00000 0 -22160804.426 -9209120.761 -8657841.632 10 0 61099 17100.00000 0 -23017300.102 -9489582.937 -5581012.321 10 0 61099 18000.00000 0 -23546861.864 -9535324.722 -2395838.927 10 0 61099 18900.00000 0 -23713676.624 -9391030.440 835835.302 10 0 61099 19800.00000 0 -23493741.047 -9108189.238 4051296.644 10 0 61099 20700.00000 0 -22875953.365 -8742688.872 7188176.427 10 0 61099 21600.00000 0 -21862682.247 -8352235.007 10185657.503 10 0 61099 22500.00000 0 -20469789.148 -7993705.415 12985648.380 10 0 61099 23400.00000 0 -18726103.394 -7720550.837 15533902.536 10 0 61099 24300.00000 0 -16672371.970 -7580352.051 17781061.740 10 0 61099 25200.00000 0 -14359727.657 -7612635.798 19683603.934 10 0 61099 26100.00000 0 -11847738.985 -7847041.233 21204678.127 10 0 61099 27000.00000 0 -9202122.456 -8301913.765 22314811.084 10 0 61099 27900.00000 0 -6492211.194 -8983385.366 22992473.016 10 0 61099 28800.00000 0 -3788284.002 -9884980.150 23224492.037 10 0 61099 29700.00000 0 -1158864.366 -10987762.405 23006309.858 10 0 61099 30600.00000 0 1331899.967 -12261021.805 22342073.920 10 0 61099 31500.00000 0 3626669.390 -13663468.350 21244563.987 10 0 61099 32400.00000 0 5677057.082 -15144888.472 19734954.023 10 0 61099 33300.00000 0 7445397.809 -16648194.493 17842413.080 10 0 61099 34200.00000 0 8906068.026 -18111783.035 15603551.814 10 0 61099 35100.00000 0 10046302.773 -19472104.738 13061724.124 10 0 61099 36000.00000 0 10866475.582 -20666338.371 10266196.235 10 0 61099 36900.00000 0 11379829.804 -21635057.434 7271198.335 10 0 61099 37800.00000 0 11611672.717 -22324777.072 4134876.384 10 0 61099 38700.00000 0 11598066.413 -22690273.596 918164.032 10 0 61099 39600.00000 0 11384070.796 -22696577.905 -2316403.443 10 0 61099 40500.00000 0 11021613.230 -22320557.573 -5505909.773 10 0 61099 41400.00000 0 10567075.426 -21552019.388 -8588288.534 10 0 61099 42300.00000 0 10078700.441 -20394284.403 -11503539.269 10 0 61099 43200.00000 0 9613930.520 -18864209.844 -14194904.274 10 0 61099 44100.00000 0 9226789.541 -16991655.729 -16609982.111 10 0 61099 45000.00000 0 8965422.012 -14818417.693 -18701755.275 10 0 61099 45900.00000 0 8869893.818 -12396670.193 -20429511.314 10 0 61099 46800.00000 0 8970348.662 -9786984.972 -21759639.058 10 0 61099 47700.00000 0 9285598.895 -7056007.606 -22666284.241 10 0 61099 48600.00000 0 9822210.782 -4273889.251 -23131851.831 10 0 61099 49500.00000 0 10574123.168 -1511580.778 -23147345.556 10 0 61099 50400.00000 0 11522815.775 1161897.876 -22712538.386 10 0 61099 51300.00000 0 12638020.065 3682099.595 -21835971.126 10 0 61099 52200.00000 0 13878942.636 5991593.645 -20534779.599 10 0 61099 53100.00000 0 15195949.485 8042109.842 -18834354.229 10 0 61099 54000.00000 0 16532640.050 9796295.043 -16767839.062 10 0 61099 54900.00000 0 17828223.556 11229010.101 -14375480.293 10 0 61099 55800.00000 0 19020097.475 12328114.733 -11703837.334 10 0 61099 56700.00000 0 20046519.427 13094709.350 -8804872.076 10 0 61099 57600.00000 0 20849260.016 13542825.698 -5734934.358 10 0 61099 58500.00000 0 21376124.869 13698581.244 -2553663.727 10 0 61099 59400.00000 0 21583239.842 13598834.759 677170.875 10 0 61099 60300.00000 0 21437003.314 13289401.307 3894870.685 10 0 61099 61200.00000 0 20915623.639 12822903.237 7037022.422 10 0 61099 62100.00000 0 20010177.304 12256348.769 10042705.700 10 0 61099 63000.00000 0 18725143.472 11648540.929 12853669.224 10 0 61099 63900.00000 0 17078392.550 11057426.357 15415453.255 10 0 61099 64800.00000 0 15100629.103 10537495.658 17678437.108 10 0 61099 65700.00000 0 12834312.088 10137344.511 19598792.139 10 0 61099 66600.00000 0 10332096.894 9897497.720 21139322.561 10 0 61099 67500.00000 0 7654863.284 9848587.205 22270178.770 10 0 61099 68400.00000 0 4869410.150 10009960.115 22969430.239 10 0 61099 69300.00000 0 2045911.636 10388775.275 23223487.618 10 0 61099 70200.00000 0 -744761.267 10979626.000 23027366.371 10 0 61099 71100.00000 0 -3433744.046 11764705.526 22384787.037 10 0 61099 72000.00000 0 -5956796.215 12714508.918 21308109.944 10 0 61099 72900.00000 0 -8256725.845 13789043.107 19818105.120 10 0 61099 73800.00000 0 -10285521.520 14939495.584 17943560.957 10 0 61099 74700.00000 0 -12006103.936 16110293.041 15720738.105 10 0 61099 75600.00000 0 -13393624.789 17241464.737 13192677.956 10 0 61099 76500.00000 0 -14436259.111 18271212.243 10408377.902 10 0 61099 77400.00000 0 -15135458.037 19138578.023 7421848.333 10 0 61099 78300.00000 0 -15505651.436 19786100.621 4291068.891 10 0 61099 79200.00000 0 -15573412.897 20162344.199 1076863.774 10 0 61099 80100.00000 0 -15376122.245 20224194.881 -2158282.031 10 0 61099 81000.00000 0 -14960182.188 19938825.829 -5351442.271 10 0 61099 81900.00000 0 -14378864.769 19285246.618 -8440480.358 10 0 61099 82800.00000 0 -13689879.257 18255369.914 -11365266.785 10 0 61099 83700.00000 0 -12952765.101 16854548.875 -14068858.399 10 0 61099 84600.00000 0 -12226221.173 15101561.107 -16498615.534 10 0 61099 85500.00000 0 -11565485.255 13028038.586 -18607234.377 10 0 61100 0.00000 0 -11019875.565 10677366.733 -20353673.618 10 0 61100 900.00000 0 -10630598.789 8103096.752 -21703957.789 10 0 61100 1800.00000 0 -10428918.550 5366940.499 -22631839.173 10 0 61100 2700.00000 0 -10434761.061 2536427.283 -23119308.582 10 0 61100 3600.00000 0 -10655817.692 -317676.673 -23156942.873 10 0 61100 4500.00000 0 -11087181.942 -3124079.749 -22744083.828 10 0 61100 5400.00000 0 -11711535.885 -5813694.475 -21888845.182 10 0 61100 6300.00000 0 -12499877.863 -8322271.772 -20607948.138 10 0 61100 7200.00000 0 -13412760.291 -10592830.740 -18926389.021 10 0 61100 8100.00000 0 -14401984.928 -12577783.584 -16876945.933 10 0 61100 9000.00000 0 -15412683.701 -14240668.287 -14499534.354 10 0 61100 9900.00000 0 -16385696.947 -15557418.016 -11840424.595 10 0 61100 10800.00000 0 -17260148.463 -16517115.908 -8951336.607 10 0 61100 11700.00000 0 -17976108.525 -17122205.427 -5888430.063 10 0 61100 12600.00000 0 -18477232.415 -17388149.313 -2711209.715 10 0 61100 13500.00000 0 -18713263.092 -17342553.335 518632.407 10 0 61100 14400.00000 0 -18642292.532 -17023793.363 3738415.191 10 0 61100 15300.00000 0 -18232686.492 -16479205.024 6885683.524 10 0 61100 16200.00000 0 -17464591.731 -15762913.346 9899416.599 10 0 61100 17100.00000 0 -16330962.336 -14933394.621 12721206.140 10 0 61100 18000.00000 0 -14838061.978 -14050873.580 15296381.955 10 0 61100 18900.00000 0 -13005420.854 -13174665.569 17575063.531 10 0 61100 19800.00000 0 -10865248.676 -12360575.238 19513118.036 10 0 61100 20700.00000 0 -8461327.593 -11658460.661 21073006.995 10 0 61100 21600.00000 0 -5847430.304 -11110064.548 22224506.185 10 0 61100 22500.00000 0 -3085328.029 -10747202.931 22945285.704 10 0 61100 23400.00000 0 -242469.789 -10590386.770 23221339.708 10 0 61100 24300.00000 0 2610572.195 -10647933.894 23047258.019 10 0 61100 25200.00000 0 5402786.615 -10915608.491 22426334.512 10 0 61100 26100.00000 0 8065426.913 -11376803.492 21370510.017 10 0 61100 27000.00000 0 10534624.124 -12003258.836 19900150.275 10 0 61100 27900.00000 0 12753801.520 -12756286.331 18043662.383 10 0 61100 28800.00000 0 14675791.595 -13588450.691 15836956.070 10 0 61100 29700.00000 0 16264567.957 -14445637.157 13322758.998 10 0 61100 30600.00000 0 17496520.241 -15269419.629 10549798.168 10 0 61100 31500.00000 0 18361218.876 -15999630.197 7571862.263 10 0 61100 32400.00000 0 18861637.603 -16577022.028 4446762.339 10 0 61100 33300.00000 0 19013824.277 -16945913.045 1235210.573 10 0 61100 34200.00000 0 18846033.658 -17056698.133 -2000361.165 10 0 61100 35100.00000 0 18397358.711 -16868122.655 -5197019.640 10 0 61100 36000.00000 0 17715918.315 -16349219.829 -8292561.182 10 0 61100 36900.00000 0 16856678.265 -15480828.489 -11226730.331 10 0 61100 37800.00000 0 15878998.217 -14256625.434 -13942401.521 10 0 61100 38700.00000 0 14844008.970 -12683627.134 -16386699.787 10 0 61100 39600.00000 0 13811931.778 -10782138.124 -18512037.772 10 0 61100 40500.00000 0 12839453.744 -8585146.947 -20277048.136 10 0 61100 41400.00000 0 11977270.869 -6137193.956 -21647392.753 10 0 61100 42300.00000 0 11267902.987 -3492757.692 -22596432.740 10 0 61100 43200.00000 0 10743873.035 -714226.816 -23105746.299 10 0 61100 44100.00000 0 10426327.446 2130458.011 -23165484.550 10 0 61100 45000.00000 0 10324155.542 4970394.105 -22774558.771 10 0 61100 45900.00000 0 10433644.513 7734430.873 -21940655.872 10 0 61100 46800.00000 0 10738683.876 10353895.255 -20680082.256 10 0 61100 47700.00000 0 11211509.964 12765215.400 -19017439.537 10 0 61100 48600.00000 0 11813958.243 14912333.850 -16985138.856 10 0 61100 49500.00000 0 12499169.842 16748810.553 -14622763.560 10 0 61100 50400.00000 0 13213679.523 18239528.976 -11976293.037 10 0 61100 51300.00000 0 13899796.368 19361935.458 -9097203.087 10 0 61100 52200.00000 0 14498176.135 20106761.453 -6041460.655 10 0 61100 53100.00000 0 14950476.279 20478200.098 -2868432.822 10 0 61100 54000.00000 0 15201981.291 20493531.402 360268.403 10 0 61100 54900.00000 0 15204087.367 20182213.474 3581982.812 10 0 61100 55800.00000 0 14916541.514 19584479.467 6734216.743 10 0 61100 56700.00000 0 14309340.667 18749500.515 9755852.201 10 0 61100 57600.00000 0 13364210.811 17733192.875 12588327.031 10 0 61100 58500.00000 0 12075603.800 16595762.072 15176763.484 10 0 61100 59400.00000 0 10451169.772 15399087.504 17471023.886 10 0 61100 60300.00000 0 8511684.918 14204057.208 19426673.614 10 0 61100 61200.00000 0 6290436.974 13067964.256 21005833.615 10 0 61100 62100.00000 0 3832093.136 12042073.269 22177906.837 10 0 61100 63000.00000 0 1191096.376 11169458.254 22920165.442 10 0 61100 63900.00000 0 -1570344.553 10483201.548 23218188.142 10 0 61100 64800.00000 0 -4384589.481 10005028.548 23066139.728 10 0 61100 65700.00000 0 -7181130.382 9744434.919 22466887.565 10 0 61100 66600.00000 0 -9889279.382 9698342.623 21431952.633 10 0 61100 67500.00000 0 -12440871.237 9851299.265 19981295.528 10 0 61100 68400.00000 0 -14772869.443 10176212.808 18142940.718 10 0 61100 69300.00000 0 -16829768.664 10635591.429 15952445.227 10 0 61100 70200.00000 0 -18565694.227 11183237.153 13452220.844 10 0 61100 71100.00000 0 -19946111.541 11766322.770 10690721.756 10 0 61100 72000.00000 0 -20949074.071 12327765.064 7721512.333 10 0 61100 72900.00000 0 -21565957.489 12808794.594 4602232.340 10 0 61100 73800.00000 0 -21801648.915 13151613.447 1393479.175 10 0 61100 74700.00000 0 -21674182.927 13302028.125 -1842371.171 10 0 61100 75600.00000 0 -21213839.444 13211945.353 -5042381.240 10 0 61100 76500.00000 0 -20461741.346 12841623.970 -8144283.023 10 0 61100 77400.00000 0 -19468011.148 12161586.101 -11087697.808 10 0 61100 78300.00000 0 -18289564.821 11154105.156 -13815320.240 10 0 61100 79200.00000 0 -16987636.455 9814206.007 -16274042.544 10 0 61100 80100.00000 0 -15625138.925 8150133.542 -18415996.115 10 0 61100 81000.00000 0 -14263972.615 6183268.296 -20199489.463 10 0 61100 81900.00000 0 -12962396.369 3947491.430 -21589823.832 10 0 61100 82800.00000 0 -11772571.948 1488024.709 -22559970.350 10 0 61100 83700.00000 0 -10738385.694 -1140206.733 -23091095.584 10 0 61100 84600.00000 0 -9893639.028 -3874620.893 -23172925.484 10 0 61100 85500.00000 0 -9260683.606 -6647349.539 -22803940.998 10 0 61101 0.00000 0 -8849557.927 -9387834.136 -21991402.070 10 0 61101 900.00000 0 -8657660.635 -12025540.552 -20751199.514 10 0 61101 1800.00000 0 -8669973.699 -14492676.013 -19107539.276 10 0 61101 2700.00000 0 -8859824.156 -16726800.417 -17092464.178 10 0 61101 3600.00000 0 -9190151.719 -18673220.021 -14745223.790 10 0 61101 4500.00000 0 -9615227.397 -20287065.898 -12111504.703 10 0 61101 5400.00000 0 -10082749.622 -21534971.121 -9242536.526 10 0 61101 6300.00000 0 -10536228.509 -22396277.764 -6194091.324 10 0 61101 7200.00000 0 -10917556.828 -22863724.559 -3025396.290 10 0 61101 8100.00000 0 -11169658.546 -22943587.855 202018.863 10 0 61101 9000.00000 0 -11239102.695 -22655271.491 3425517.162 10 0 61101 9900.00000 0 -11078571.936 -22030364.189 6582568.787 10 0 61101 10800.00000 0 -10649081.539 -21111205.333 9611961.008 10 0 61101 11700.00000 0 -9921855.130 -19949020.376 12454980.277 10 0 61101 12600.00000 0 -8879778.095 -18601704.878 15056543.792 10 0 61101 13500.00000 0 -7518367.371 -17131350.509 17366259.143 10 0 61101 14400.00000 0 -5846216.475 -15601616.763 19339392.228 10 0 61101 15300.00000 0 -3884896.581 -14075058.149 20937725.510 10 0 61101 16200.00000 0 -1668316.846 -12610518.137 22130290.944 10 0 61101 17100.00000 0 758430.472 -11260697.994 22893964.272 10 0 61101 18000.00000 0 3340693.424 -10070001.236 23213909.949 10 0 61101 18900.00000 0 6016286.391 -9072742.854 23083868.568 10 0 61101 19800.00000 0 8717836.289 -8291797.297 22506281.484 10 0 61101 20700.00000 0 11375353.255 -7737741.177 21492250.005 10 0 61101 21600.00000 0 13918920.713 -7408526.197 20061329.460 10 0 61101 22500.00000 0 16281394.543 -7289695.929 18241161.258 10 0 61101 23400.00000 0 18401000.229 -7355137.588 16066948.992 10 0 61101 24300.00000 0 20223720.688 -7568337.610 13580787.518 10 0 61101 25200.00000 0 21705375.629 -7884088.703 10830856.805 10 0 61101 26100.00000 0 22813305.612 -8250576.926 7870495.133 10 0 61101 27000.00000 0 23527590.114 -8611761.010 4757168.819 10 0 61101 27900.00000 0 23841748.089 -8909943.426 1551357.978 10 0 61101 28800.00000 0 23762891.038 -9088424.135 -1684620.084 10 0 61101 29700.00000 0 23311321.650 -9094124.006 -4887826.697 10 0 61101 30600.00000 0 22519594.524 -8880065.740 -7995932.635 10 0 61101 31500.00000 0 21431078.355 -8407605.896 -10948439.065 10 0 61101 32400.00000 0 20098080.257 -7648321.960 -13687863.893 10 0 61101 33300.00000 0 18579611.588 -6585472.932 -16160869.454 10 0 61101 34200.00000 0 16938889.936 -5214970.044 -18319308.615 10 0 61101 35100.00000 0 15240683.081 -3545815.051 -20121168.254 10 0 61101 36000.00000 0 13548607.360 -1599986.190 -21531391.248 10 0 61101 36900.00000 0 11922494.575 588224.599 -22522560.723 10 0 61101 37800.00000 0 10415938.444 2973396.332 -23075433.271 10 0 61101 38700.00000 0 9074123.644 5500636.641 -23179310.980 10 0 61101 39600.00000 0 7932028.328 8107643.581 -22832245.367 10 0 61101 40500.00000 0 7013074.896 10727085.827 -22041069.712 10 0 61101 41400.00000 0 6328284.682 13289202.168 -20821259.584 10 0 61101 42300.00000 0 5875970.859 15724512.069 -19196624.765 10 0 61101 43200.00000 0 5641981.009 17966524.516 -17198838.920 10 0 61101 44100.00000 0 5600477.647 19954332.492 -14866816.569 10 0 61101 45000.00000 0 5715222.340 21634985.273 -12245949.796 10 0 61101 45900.00000 0 5941307.840 22965540.128 -9387219.903 10 0 61101 46800.00000 0 6227263.884 23914708.521 -6346201.564 10 0 61101 47700.00000 0 6517446.694 24464028.924 -3181979.246 10 0 61101 48600.00000 0 6754610.340 24608518.295 44002.739 10 0 61101 49500.00000 0 6882550.742 24356776.184 3269133.932 10 0 61101 50400.00000 0 6848710.126 23730538.292 6430851.709 10 0 61101 51300.00000 0 6606631.750 22763699.426 9467851.940 10 0 61101 52200.00000 0 6118161.126 21500847.761 12321272.916 10 0 61101 53100.00000 0 5355300.890 19995372.627 14935829.839 10 0 61101 54000.00000 0 4301641.072 18307225.536 17260878.412 10 0 61101 54900.00000 0 2953304.395 16500428.233 19251387.640 10 0 61101 55800.00000 0 1319366.452 14640431.797 20868803.801 10 0 61101 56700.00000 0 -578267.558 12791436.525 22081789.832 10 0 61101 57600.00000 0 -2705525.445 11013783.696 22866826.680 10 0 61101 58500.00000 0 -5017343.680 9361527.042 23208665.739 10 0 61101 59400.00000 0 -7459308.636 7880284.146 23100624.164 10 0 61101 60300.00000 0 -9969696.905 6605456.333 22544717.537 10 0 61101 61200.00000 0 -12481831.590 5560890.456 21551627.197 10 0 61101 62100.00000 0 -14926658.363 4758037.735 20140502.350 10 0 61101 63000.00000 0 -17235435.724 4195644.391 18338599.940 10 0 61101 63900.00000 0 -19342428.753 3859986.840 16180768.211 10 0 61101 64800.00000 0 -21187495.048 3725641.647 13708782.730 10 0 61101 65700.00000 0 -22718455.491 3756758.071 10970546.544 10 0 61101 66600.00000 0 -23893150.804 3908779.916 8019168.893 10 0 61101 67500.00000 0 -24681097.594 4130544.261 4911939.568 10 0 61101 68400.00000 0 -25064673.859 4366668.446 1709218.268 10 0 61101 69300.00000 0 -25039783.459 4560124.133 -1526739.493 10 0 61101 70200.00000 0 -24615970.815 4654888.901 -4732996.880 10 0 61101 71100.00000 0 -23815980.326 4598562.165 -7847166.409 10 0 61101 72000.00000 0 -22674778.514 4344833.375 -10808631.972 10 0 61101 72900.00000 0 -21238079.818 3855696.523 -13559737.449 10 0 61101 73800.00000 0 -19560438.097 3103315.618 -16046917.793 10 0 61101 74700.00000 0 -17702984.433 2071460.578 -18221749.601 10 0 61101 75600.00000 0 -15730906.817 756451.343 -20041900.040 10 0 61101 76500.00000 0 -13710778.129 -832431.123 -21471955.134 10 0 61101 77400.00000 0 -11707845.121 -2673085.495 -22484111.062 10 0 61101 78300.00000 0 -9783392.462 -4731277.553 -23058715.017 10 0 61101 79200.00000 0 -7992292.416 -6961846.476 -23184645.314 10 0 61101 80100.00000 0 -6380842.666 -9310379.979 -22859523.670 10 0 61101 81000.00000 0 -4984982.208 -11715288.646 -22089755.989 10 0 61101 81900.00000 0 -3828959.177 -14110193.023 -20890401.273 10 0 61101 82800.00000 0 -2924505.143 -16426523.909 -19284871.678 10 0 61101 83700.00000 0 -2270549.009 -18596227.406 -17304469.940 10 0 61101 84600.00000 0 -1853480.809 -20554461.941 -14987773.544 10 0 61101 85500.00000 0 -1647952.547 -22242174.818 -12379877.948 10 0 61102 0.00000 0 -1618180.636 -23608450.879 -9531514.208 10 0 61102 900.00000 0 -1719693.418 -24612536.242 -6498056.872 10 0 61102 1800.00000 0 -1901448.622 -25225451.319 -3338445.711 10 0 61102 2700.00000 0 -2108230.118 -25431128.821 -114037.452 10 0 61102 3600.00000 0 -2283221.886 -25227028.096 3112586.107 10 0 61102 4500.00000 0 -2370649.695 -24624201.814 6278831.669 10 0 61102 5400.00000 0 -2318378.555 -23646813.027 9323305.824 10 0 61102 6300.00000 0 -2080355.991 -22331123.706 12187000.808 10 0 61102 7200.00000 0 -1618798.004 -20723997.787 14814431.907 10 0 61102 8100.00000 0 -906025.546 -18880981.816 17154704.946 10 0 61102 9000.00000 0 74125.910 -16864043.532 19162493.921 10 0 61102 9900.00000 0 1325383.171 -14739062.668 20798910.653 10 0 61102 10800.00000 0 2838637.748 -12573178.114 22032250.545 10 0 61102 11700.00000 0 4592091.355 -10432101.193 22838600.958 10 0 61102 12600.00000 0 6551939.521 -8377505.960 23202301.153 10 0 61102 13500.00000 0 8673566.192 -6464604.011 23116245.446 10 0 61102 14400.00000 0 10903201.171 -4740003.556 22582023.957 10 0 61102 15300.00000 0 13179973.108 -3239940.865 21609898.072 10 0 61102 16200.00000 0 15438274.282 -1988956.794 20218610.609 10 0 61102 17100.00000 0 17610340.395 -999072.910 18435033.526 10 0 61102 18000.00000 0 19628939.194 -269501.168 16293658.927 10 0 61102 18900.00000 0 21430056.859 213100.958 13835942.038 10 0 61102 19800.00000 0 22955470.590 473840.650 11109507.633 10 0 61102 20700.00000 0 24155099.959 548298.356 8167234.272 10 0 61102 21600.00000 0 24989038.295 480789.184 5066233.252 10 0 61102 22500.00000 0 25429178.312 322250.463 1866741.601 10 0 61102 23400.00000 0 25460362.804 127844.957 -1369049.479 10 0 61102 24300.00000 0 25081011.043 -45618.346 -4578207.700 10 0 61102 25200.00000 0 24303193.553 -142335.912 -7698290.140 10 0 61102 26100.00000 0 23152151.214 -110120.374 -10668566.246 10 0 61102 27000.00000 0 21665278.325 97141.573 -13431208.629 10 0 61102 27900.00000 0 19890612.019 517289.679 -15932427.481 10 0 61102 28800.00000 0 17884891.504 1178043.629 -18123525.586 10 0 61102 29700.00000 0 15711268.799 2095589.089 -19961852.661 10 0 61102 30600.00000 0 13436767.393 3273657.431 -21411639.952 10 0 61102 31500.00000 0 11129595.785 4703139.179 -22444698.564 10 0 61102 32400.00000 0 8856428.731 6362248.504 -23040967.941 10 0 61102 33300.00000 0 6679770.158 8217232.697 -23188904.007 10 0 61102 34200.00000 0 4655507.933 10223597.456 -22885699.756 10 0 61102 35100.00000 0 2830762.268 12327797.043 -22137334.429 10 0 61102 36000.00000 0 1242116.915 14469318.814 -20958450.763 10 0 61102 36900.00000 0 -85694.037 16583074.992 -19372063.159 10 0 61102 37800.00000 0 -1140590.267 18602001.704 -17409102.840 10 0 61102 38700.00000 0 -1923408.309 20459756.618 -15107809.217 10 0 61102 39600.00000 0 -2447614.445 22093402.368 -12512979.647 10 0 61102 40500.00000 0 -2738481.417 23445963.603 -9675092.507 10 0 61102 41400.00000 0 -2831765.496 24468750.864 -6649320.969 10 0 61102 42300.00000 0 -2771941.373 25123354.276 -3494456.999 10 0 61102 43200.00000 0 -2610070.839 25383224.037 -271766.851 10 0 61102 44100.00000 0 -2401396.437 25234772.041 2956199.432 10 0 61102 45000.00000 0 -2202762.658 24677949.158 6126821.096 10 0 61102 45900.00000 0 -2069974.222 23726274.686 9178618.704 10 0 61102 46800.00000 0 -2055203.330 22406317.393 12052441.670 10 0 61102 47700.00000 0 -2204555.461 20756650.413 14692608.490 10 0 61102 48600.00000 0 -2555896.337 18826324.052 17047978.099 10 0 61102 49500.00000 0 -3137031.546 16672920.356 19072932.283 10 0 61102 50400.00000 0 -3964315.427 14360270.425 20728250.948 10 0 61102 51300.00000 0 -5041747.870 11955929.053 21981864.247 10 0 61102 52200.00000 0 -6360597.379 9528511.031 22809467.892 10 0 61102 53100.00000 0 -7899566.995 7144998.848 23194990.549 10 0 61102 54000.00000 0 -9625497.267 4868132.527 23130904.778 10 0 61102 54900.00000 0 -11494578.309 2753988.770 22618375.796 10 0 61102 55800.00000 0 -13454021.982 849848.866 21667245.015 10 0 61102 56700.00000 0 -15444126.124 -807557.099 20295848.245 10 0 61102 57600.00000 0 -17400646.391 -2193357.534 18530671.219 10 0 61102 58500.00000 0 -19257378.159 -3295344.279 16405848.082 10 0 61102 59400.00000 0 -20948841.803 -4114242.036 13962511.370 10 0 61102 60300.00000 0 -22412959.882 -4663431.261 11248004.798 10 0 61102 61200.00000 0 -23593614.371 -4968136.232 8314973.113 10 0 61102 62100.00000 0 -24442976.631 -5064112.497 5220345.773 10 0 61102 63000.00000 0 -24923511.712 -4995889.090 2024233.669 10 0 61102 63900.00000 0 -25009571.794 -4814639.905 -1211239.806 10 0 61102 64800.00000 0 -24688510.655 -4575774.651 -4423150.355 10 0 61102 65700.00000 0 -23961270.960 -4336351.962 -7549002.967 10 0 61102 66600.00000 0 -22842418.518 -4152425.168 -10527955.857 10 0 61102 67500.00000 0 -21359621.033 -4076434.248 -13302013.389 10 0 61102 68400.00000 0 -19552592.510 -4154755.755 -15817163.781 10 0 61102 69300.00000 0 -17471547.256 -4425515.787 -18024438.463 10 0 61102 70200.00000 0 -15175228.212 -4916759.906 -19880871.766 10 0 61102 71100.00000 0 -12728592.348 -5645058.609 -21350341.729 10 0 61102 72000.00000 0 -10200250.318 -6614608.359 -22404275.406 10 0 61102 72900.00000 0 -7659767.716 -7816867.017 -23022204.919 10 0 61102 73800.00000 0 -5174940.888 -9230739.788 -23192163.644 10 0 61102 74700.00000 0 -2809161.045 -10823308.397 -22910915.145 10 0 61102 75600.00000 0 -618976.421 -12551073.225 -22184010.798 10 0 61102 76500.00000 0 1348046.441 -14361656.508 -21025675.468 10 0 61102 77400.00000 0 3055073.925 -16195895.196 -19458523.856 10 0 61102 78300.00000 0 4477297.289 -17990235.753 -17513113.469 10 0 61102 79200.00000 0 5602712.928 -19679330.452 -15227343.245 10 0 61102 80100.00000 0 6432360.125 -21198726.252 -12645709.909 10 0 61102 81000.00000 0 6980008.320 -22487533.499 -9818436.831 10 0 61102 81900.00000 0 7271309.056 -23490962.575 -6800492.664 10 0 61102 82800.00000 0 7342450.209 -24162622.203 -3650519.213 10 0 61102 83700.00000 0 7238370.958 -24466483.208 -429689.714 10 0 61102 84600.00000 0 7010614.268 -24378425.681 2799479.999 10 0 61102 85500.00000 0 6714908.688 -23887305.046 5974344.059 99